Arden, NC

12:16 AM EST on December 08, 2016 (GMT -0500)
Asheville Regional

Weather History for KAVL - July, 2015

Change the Weather History Date:

Saturday, July 4, 2015

  Actual Average Record
Temperature  
Mean Temperature 72 °F 74 °F  
Max Temperature 78 °F 84 °F 97 °F (1948)
Min Temperature 65 °F 63 °F 51 °F (1986)
Degree Days  
Heating Degree Days 0 0  
Month to date heating degree days 0 0  
Since 1 June heating degree days 0 14  
Since 1 July heating degree days 0 0  
Cooling Degree Days 7 8  
Month to date cooling degree days 26 32  
Year to date cooling degree days 411 267  
Since 1 June cooling degree days 289 209  
Growing Degree Days 21 (Base 50)    
Moisture  
Dew Point 64 °F    
Average Humidity 77    
Maximum Humidity 93    
Minimum Humidity 60    
Precipitation  
Precipitation 0.21 in 0.15 in 2.09 in (2013)
Month to date precipitation 0.34 0.58  
Year to date precipitation 21.01 23.48  
Snow  
Snow 0.00 in 0.00 in 0.00 in ()
Month to date snowfall 0.0 0.0  
Since 1 June snowfall 0.0 0.0  
Since 1 July snowfall 0.0 0.0  
Snow Depth 0.00 in    
Sea Level Pressure  
Sea Level Pressure 30.01 in    
Wind  
Wind Speed 3 mph (West)    
Max Wind Speed 18 mph    
Max Gust Speed 22 mph    
Visibility 9 miles    
Events Rain    
T = Trace of Precipitation, MM = Missing Value Source: NWS Daily Summary

Daily Weather History Graph

Daily Weather History Graph

Search for Another Location

Airport or City:

Trip Planner

Search our weather history database for the weather conditions in past years. The results will help you decide how hot, cold, wet, or windy it might be!

Date:

Astronomy

Jul. 04, 2015 Rise Set
Actual Time 6:19 AM EDT 8:48 PM EDT
Civil Twilight 5:50 AM EDT 9:18 PM EDT
Nautical Twilight 5:13 AM EDT 9:55 PM EDT
Astronomical Twilight 4:32 AM EDT 10:35 PM EDT
Moon 10:47 PM EDT (7/4) 9:08 AM EDT (7/4)
Length of Visible Light 15h 28m
Length of Day
14h 29m
Waning Gibbous, 91% of the Moon is Illuminated
Jul 4
Waning Gibbous
Jul 8
Last Quarter
Jul 15
New
Jul 24
First Quarter
Jul 31
Full

Hourly Weather History & Observations

Time (EDT) Temp. Dew Point Humidity Pressure Visibility Wind Dir Wind Speed Gust Speed Precip Events Conditions
12:54 AM 69.1 °F 60.1 °F 73% 29.96 in 10.0 mi SSW 10.4 mph - N/A   Overcast
1:54 AM 69.1 °F 61.0 °F 75% 29.95 in 10.0 mi SSW 3.5 mph - N/A   Overcast
2:54 AM 68.0 °F 61.0 °F 78% 29.95 in 10.0 mi Calm Calm - N/A   Overcast
3:54 AM 66.9 °F 62.1 °F 84% 29.95 in 10.0 mi Calm Calm - N/A   Overcast
4:54 AM 66.0 °F 63.0 °F 90% 29.95 in 10.0 mi Calm Calm - 0.02 in Rain Light Rain
5:54 AM 64.9 °F 63.0 °F 93% 29.97 in 9.0 mi Calm Calm - 0.02 in Rain Light Rain
6:54 AM 64.9 °F 63.0 °F 93% 29.97 in 6.0 mi South 4.6 mph - 0.06 in Rain Light Rain
7:19 AM 66.0 °F 63.0 °F 90% 30.05 in 10.0 mi South 3.5 mph - 0.01 in Rain Light Rain
7:54 AM 66.0 °F 63.0 °F 90% 29.96 in 10.0 mi South 8.1 mph - 0.01 in   Scattered Clouds
8:45 AM 66.9 °F 64.0 °F 90% 30.05 in 10.0 mi NNW 9.2 mph - N/A   Mostly Cloudy
8:54 AM 66.9 °F 64.0 °F 90% 29.99 in 10.0 mi NNW 8.1 mph - N/A   Scattered Clouds
9:54 AM 71.1 °F 64.0 °F 78% 30.00 in 10.0 mi NNW 5.8 mph - N/A   Mostly Cloudy
10:33 AM 70.0 °F 64.0 °F 81% 30.09 in 10.0 mi Variable 3.5 mph - 0.00 in   Overcast
10:39 AM 70.0 °F 64.0 °F 81% 30.09 in 10.0 mi Calm Calm - 0.00 in   Overcast
10:54 AM 71.1 °F 63.0 °F 75% 30.02 in 10.0 mi Calm Calm - 0.00 in   Overcast
11:54 AM 70.0 °F 66.0 °F 87% 30.03 in 10.0 mi SSW 4.6 mph - 0.00 in Rain Light Rain
12:54 PM 73.0 °F 66.0 °F 79% 30.03 in 10.0 mi Variable 4.6 mph - 0.00 in   Mostly Cloudy
1:51 PM 71.6 °F 66.2 °F 83% 30.09 in 3.0 mi Calm Calm - 0.07 in Rain Heavy Rain
1:54 PM 73.0 °F 69.1 °F 87% 30.01 in 4.0 mi Calm Calm - 0.07 in Rain Light Rain
2:04 PM 73.9 °F 66.0 °F 76% 30.08 in 10.0 mi Calm Calm - 0.00 in   Overcast
2:54 PM 75.9 °F 66.0 °F 71% 29.99 in 10.0 mi Calm Calm - 0.03 in   Scattered Clouds
3:54 PM 75.0 °F 64.9 °F 71% 29.99 in 10.0 mi NNW 12.7 mph - N/A   Scattered Clouds
4:54 PM 75.9 °F 64.9 °F 69% 30.00 in 10.0 mi NNW 6.9 mph - N/A   Partly Cloudy
5:54 PM 75.9 °F 64.0 °F 67% 30.01 in 10.0 mi NNW 5.8 mph - N/A   Scattered Clouds
6:54 PM 77.0 °F 63.0 °F 62% 30.01 in 10.0 mi Variable 3.5 mph - N/A   Mostly Cloudy
7:54 PM 75.0 °F 64.9 °F 71% 30.01 in 10.0 mi Calm Calm - N/A   Mostly Cloudy
9:54 PM 71.1 °F 66.0 °F 84% 30.04 in 10.0 mi Calm Calm - N/A   Scattered Clouds
10:54 PM 70.0 °F 64.0 °F 81% 30.06 in 10.0 mi Calm Calm - N/A   Overcast
11:54 PM 69.1 °F 64.0 °F 84% 30.06 in 10.0 mi Calm Calm - N/A   Mostly Cloudy